QPF
0.00 0.00 0.00 0.00 0.01 0.01 0.01 0.00 0.00 0.00 0.02 0.03 0.02 0.01 0.01 0.00 0.01 0.01 0.02 0.02 0.02 0.03 0.02 0.02 0.02 0.04 0.07 0.08 0.10 0.11 0.11 0.12 0.14 0.13 0.11 0.10 0.09 0.07
0.00 0.00 0.00 0.00 0.00 0.00 0.00 0.00 0.00 0.01 0.02 0.02 0.02 0.01 0.01 0.00 0.00 0.00 0.01 0.03 0.02 0.02 0.04 0.03 0.02 0.03 0.04 0.05 0.06 0.08 0.08 0.08 0.11 0.13 0.13 0.12 0.10 0.07
0.00 0.00 0.00 0.00 0.00 0.00 0.01 0.00 0.00 0.00 0.01 0.02 0.01 0.01 0.01 0.01 0.01 0.01 0.01 0.01 0.02 0.03 0.05 0.06 0.05 0.04 0.05 0.04 0.05 0.06 0.07 0.06 0.06 0.09 0.11 0.10 0.08 0.06
0.00 0.00 0.00 0.00 0.00 0.00 0.00 0.00 0.00 0.00 0.01 0.02 0.01 0.00 0.01 0.01 0.01 0.01 0.02 0.01 0.01 0.01 0.04 0.07 0.06 0.04 0.04 0.05 0.05 0.05 0.05 0.05 0.05 0.04 0.04 0.05 0.07 0.06
0.00 0.00 0.00 0.00 0.00 0.00 0.00 0.00 0.00 0.00 0.01 0.01 0.01 0.01 0.01 0.01 0.02 0.02 0.03 0.03 0.01 0.01 0.01 0.04 0.05 0.05 0.04 0.05 0.05 0.05 0.03 0.03 0.04 0.03 0.03 0.04 0.05 0.06
0.00 0.00 0.00 0.00 0.00 0.00 0.00 0.00 0.00 0.00 0.01 0.01 0.02 0.02 0.01 0.01 0.01 0.01 0.02 0.03 0.03 0.02 0.01 0.01 0.02 0.04 0.05 0.05 0.06 0.07 0.05 0.03 0.03 0.03 0.03 0.02 0.03 0.05
0.00 0.00 0.00 0.00 0.00 0.00 0.00 0.00 0.00 0.00 0.01 0.01 0.03 0.03 0.03 0.01 0.00 0.01 0.01 0.02 0.03 0.03 0.03 0.02 0.01 0.02 0.03 0.05 0.06 0.06 0.07 0.06 0.05 0.04 0.03 0.03 0.03 0.03
0.00 0.00 0.00 0.00 0.00 0.00 0.00 0.00 0.00 0.00 0.00 0.00 0.01 0.02 0.02 0.01 0.01 0.00 0.01 0.01 0.02 0.02 0.02 0.02 0.02 0.02 0.02 0.03 0.05 0.07 0.08 0.08 0.08 0.06 0.05 0.04 0.04 0.04
0.00 0.00 0.00 0.00 0.00 0.00 0.00 0.00 0.00 0.00 0.00 0.00 0.00 0.00 0.00 0.00 0.00 0.00 0.01 0.01 0.03 0.04 0.03 0.02 0.02 0.02 0.01 0.02 0.04 0.05 0.07 0.10 0.11 0.10 0.07 0.06 0.05 0.05
0.00 0.00 0.00 0.00 0.00 0.00 0.00 0.00 0.00 0.00 0.00 0.00 0.00 0.00 0.00 0.00 0.01 0.01 0.00 0.00 0.01 0.05 0.05 0.03 0.02 0.01 0.02 0.02 0.03 0.04 0.05 0.07 0.10 0.12 0.12 0.10 0.08 0.07
0.00 0.00 0.00 0.00 0.00 0.01 0.01 0.01 0.01 0.00 0.00 0.00 0.00 0.00 0.00 0.00 0.01 0.01 0.01 0.01 0.02 0.03 0.04 0.04 0.03 0.02 0.03 0.03 0.03 0.04 0.04 0.06 0.08 0.10 0.12 0.12 0.11 0.09
0.00 0.00 0.00 0.00 0.00 0.00 0.00 0.01 0.01 0.01 0.00 0.00 0.00 0.00 0.00 0.00 0.00 0.00 0.01 0.01 0.02 0.03 0.03 0.04 0.05 0.04 0.03 0.05 0.05 0.05 0.06 0.07 0.09 0.10 0.10 0.11 0.12 0.11
0.00 0.00 0.00 0.00 0.00 0.00 0.00 0.00 0.01 0.01 0.01 0.01 0.00 0.00 0.00 0.00 0.01 0.01 0.01 0.02 0.02 0.02 0.03 0.03 0.06 0.07 0.05 0.05 0.05 0.06 0.07 0.07 0.09 0.10 0.11 0.12 0.13 0.11
0.00 0.00 0.00 0.00 0.00 0.00 0.00 0.00 0.00 0.02 0.02 0.01 0.01 0.01 0.01 0.01 0.02 0.02 0.02 0.02 0.03 0.03 0.05 0.04 0.04 0.06 0.07 0.06 0.05 0.06 0.06 0.07 0.07 0.09 0.09 0.11 0.12 0.14
0.01 0.00 0.00 0.00 0.00 0.00 0.00 0.00 0.00 0.01 0.01 0.01 0.01 0.01 0.02 0.02 0.02 0.02 0.02 0.03 0.04 0.03 0.05 0.07 0.05 0.05 0.07 0.08 0.08 0.07 0.07 0.07 0.07 0.07 0.08 0.08 0.09 0.11
0.01 0.01 0.01 0.00 0.00 0.00 0.00 0.00 0.00 0.00 0.00 0.01 0.02 0.02 0.02 0.02 0.03 0.03 0.03 0.04 0.05 0.05 0.04 0.04 0.06 0.06 0.06 0.08 0.08 0.09 0.08 0.07 0.06 0.06 0.06 0.06 0.07 0.09
0.01 0.01 0.01 0.00 0.00 0.00 0.00 0.00 0.00 0.00 0.01 0.01 0.02 0.02 0.02 0.03 0.03 0.04 0.04 0.04 0.04 0.05 0.05 0.05 0.06 0.08 0.07 0.07 0.07 0.07 0.07 0.07 0.07 0.07 0.07 0.06 0.05 0.06
0.00 0.01 0.01 0.00 0.00 0.00 0.00 0.00 0.00 0.00 0.01 0.02 0.02 0.02 0.03 0.03 0.03 0.03 0.04 0.05 0.05 0.04 0.05 0.06 0.07 0.09 0.08 0.06 0.06 0.06 0.05 0.05 0.05 0.06 0.06 0.06 0.06 0.06
0.01 0.01 0.01 0.00 0.00 0.01 0.01 0.01 0.01 0.01 0.01 0.02 0.03 0.03 0.03 0.03 0.04 0.04 0.04 0.05 0.05 0.05 0.05 0.05 0.06 0.08 0.08 0.06 0.05 0.05 0.05 0.05 0.06 0.06 0.06 0.05 0.06 0.06
0.02 0.01 0.01 0.01 0.01 0.01 0.01 0.01 0.01 0.01 0.01 0.01 0.02 0.03 0.03 0.03 0.04 0.04 0.04 0.05 0.06 0.07 0.07 0.06 0.06 0.07 0.07 0.06 0.06 0.06 0.06 0.06 0.06 0.07 0.06 0.06 0.06 0.07
0.01 0.01 0.01 0.01 0.01 0.01 0.01 0.01 0.01 0.01 0.02 0.02 0.02 0.03 0.03 0.04 0.04 0.05 0.05 0.05 0.06 0.07 0.08 0.07 0.06 0.08 0.08 0.08 0.07 0.06 0.05 0.06 0.07 0.07 0.07 0.08 0.08 0.08
0.01 0.01 0.01 0.01 0.01 0.01 0.01 0.01 0.01 0.01 0.01 0.02 0.03 0.04 0.05 0.04 0.04 0.05 0.06 0.06 0.06 0.07 0.07 0.07 0.07 0.07 0.08 0.09 0.07 0.06 0.06 0.06 0.07 0.08 0.09 0.09 0.08 0.08
0.01 0.01 0.01 0.01 0.01 0.01 0.01 0.01 0.01 0.01 0.02 0.02 0.03 0.04 0.05 0.05 0.06 0.06 0.06 0.07 0.08 0.08 0.08 0.08 0.08 0.08 0.08 0.08 0.08 0.07 0.07 0.08 0.08 0.08 0.08 0.08 0.07 0.07
MSLP
1019.01 1019.02 1019.02 1019.01 1018.98 1018.92 1018.82 1018.68 1018.50 1018.28 1018.02 1017.74 1017.44 1017.14 1016.86 1016.59 1016.36 1016.17 1016.04 1015.97 1015.96 1016.00 1016.08 1016.21 1016.37 1016.53 1016.71 1016.89 1017.07 1017.24 1017.41 1017.58 1017.75 1017.92 1018.08 1018.25 1018.41 1018.57
1019.26 1019.27 1019.28 1019.28 1019.25 1019.20 1019.11 1018.99 1018.82 1018.61 1018.37 1018.09 1017.79 1017.47 1017.16 1016.85 1016.56 1016.31 1016.10 1015.95 1015.85 1015.82 1015.84 1015.92 1016.04 1016.20 1016.37 1016.56 1016.75 1016.93 1017.11 1017.28 1017.44 1017.59 1017.73 1017.85 1017.97 1018.09
1019.57 1019.59 1019.61 1019.61 1019.59 1019.54 1019.46 1019.35 1019.20 1019.01 1018.79 1018.53 1018.23 1017.92 1017.58 1017.24 1016.91 1016.59 1016.30 1016.06 1015.87 1015.74 1015.67 1015.66 1015.72 1015.82 1015.96 1016.12 1016.30 1016.49 1016.67 1016.84 1016.99 1017.13 1017.26 1017.37 1017.46 1017.56
1019.98 1020.00 1020.02 1020.02 1020.00 1019.95 1019.88 1019.78 1019.65 1019.49 1019.29 1019.05 1018.78 1018.48 1018.14 1017.78 1017.41 1017.03 1016.66 1016.32 1016.01 1015.77 1015.58 1015.46 1015.41 1015.42 1015.48 1015.59 1015.73 1015.89 1016.06 1016.23 1016.38 1016.52 1016.64 1016.75 1016.85 1016.95
1020.49 1020.51 1020.52 1020.51 1020.48 1020.43 1020.36 1020.27 1020.15 1020.01 1019.84 1019.63 1019.39 1019.11 1018.78 1018.41 1018.01 1017.58 1017.14 1016.70 1016.28 1015.90 1015.57 1015.31 1015.12 1015.01 1014.96 1014.98 1015.05 1015.16 1015.30 1015.45 1015.60 1015.74 1015.87 1015.99 1016.10 1016.20
1021.06 1021.06 1021.05 1021.03 1020.98 1020.92 1020.84 1020.75 1020.64 1020.51 1020.36 1020.19 1019.97 1019.72 1019.42 1019.05 1018.64 1018.17 1017.67 1017.14 1016.61 1016.10 1015.63 1015.21 1014.87 1014.61 1014.42 1014.33 1014.30 1014.33 1014.41 1014.52 1014.65 1014.79 1014.92 1015.05 1015.18 1015.31
1021.60 1021.59 1021.56 1021.51 1021.44 1021.35 1021.26 1021.15 1021.03 1020.91 1020.78 1020.63 1020.45 1020.22 1019.95 1019.60 1019.19 1018.70 1018.16 1017.56 1016.94 1016.31 1015.70 1015.14 1014.64 1014.23 1013.90 1013.66 1013.52 1013.45 1013.45 1013.50 1013.59 1013.71 1013.84 1013.98 1014.12 1014.27
1022.03 1022.00 1021.95 1021.87 1021.78 1021.66 1021.54 1021.41 1021.28 1021.16 1021.03 1020.89 1020.74 1020.54 1020.29 1019.97 1019.57 1019.08 1018.51 1017.88 1017.19 1016.48 1015.77 1015.08 1014.45 1013.89 1013.42 1013.05 1012.77 1012.59 1012.49 1012.46 1012.49 1012.57 1012.68 1012.81 1012.96 1013.13
1022.28 1022.24 1022.16 1022.06 1021.94 1021.80 1021.64 1021.49 1021.35 1021.21 1021.08 1020.95 1020.80 1020.62 1020.40 1020.10 1019.72 1019.25 1018.69 1018.04 1017.33 1016.57 1015.79 1015.02 1014.29 1013.61 1013.02 1012.51 1012.11 1011.81 1011.60 1011.48 1011.43 1011.45 1011.52 1011.63 1011.78 1011.95
1022.31 1022.25 1022.17 1022.05 1021.91 1021.75 1021.58 1021.40 1021.24 1021.08 1020.93 1020.80 1020.65 1020.48 1020.27 1020.00 1019.64 1019.20 1018.66 1018.03 1017.32 1016.55 1015.75 1014.94 1014.15 1013.39 1012.71 1012.10 1011.59 1011.17 1010.85 1010.62 1010.48 1010.43 1010.44 1010.52 1010.66 1010.83
1022.13 1022.07 1021.98 1021.86 1021.72 1021.55 1021.37 1021.19 1021.00 1020.83 1020.66 1020.51 1020.35 1020.17 1019.96 1019.70 1019.36 1018.94 1018.43 1017.84 1017.16 1016.42 1015.63 1014.82 1014.01 1013.23 1012.49 1011.81 1011.20 1010.68 1010.26 1009.93 1009.69 1009.56 1009.51 1009.55 1009.66 1009.84
1021.78 1021.73 1021.65 1021.55 1021.42 1021.27 1021.09 1020.90 1020.71 1020.52 1020.33 1020.15 1019.97 1019.77 1019.54 1019.26 1018.93 1018.53 1018.05 1017.49 1016.86 1016.17 1015.43 1014.65 1013.86 1013.08 1012.31 1011.59 1010.92 1010.32 1009.80 1009.38 1009.05 1008.83 1008.72 1008.72 1008.81 1008.99
1021.33 1021.29 1021.24 1021.17 1021.07 1020.94 1020.78 1020.60 1020.41 1020.21 1020.00 1019.78 1019.56 1019.32 1019.06 1018.76 1018.41 1018.01 1017.55 1017.03 1016.45 1015.81 1015.13 1014.41 1013.66 1012.89 1012.13 1011.38 1010.67 1010.01 1009.41 1008.90 1008.50 1008.21 1008.04 1007.99 1008.07 1008.26
1020.83 1020.82 1020.80 1020.77 1020.70 1020.61 1020.48 1020.31 1020.12 1019.91 1019.68 1019.43 1019.16 1018.88 1018.57 1018.23 1017.85 1017.44 1016.98 1016.48 1015.93 1015.35 1014.72 1014.05 1013.35 1012.62 1011.87 1011.11 1010.37 1009.66 1009.00 1008.42 1007.94 1007.59 1007.37 1007.30 1007.37 1007.57
1020.31 1020.33 1020.35 1020.35 1020.32 1020.26 1020.16 1020.01 1019.83 1019.61 1019.36 1019.08 1018.77 1018.43 1018.06 1017.67 1017.26 1016.81 1016.35 1015.85 1015.33 1014.78 1014.19 1013.57 1012.91 1012.21 1011.47 1010.71 1009.94 1009.18 1008.47 1007.83 1007.29 1006.89 1006.63 1006.54 1006.61 1006.84
1019.79 1019.83 1019.87 1019.90 1019.90 1019.86 1019.78 1019.65 1019.48 1019.26 1018.99 1018.68 1018.33 1017.95 1017.53 1017.09 1016.63 1016.15 1015.66 1015.16 1014.65 1014.12 1013.56 1012.96 1012.32 1011.64 1010.90 1010.12 1009.32 1008.52 1007.76 1007.06 1006.47 1006.02 1005.73 1005.63 1005.72 1005.98
1019.24 1019.29 1019.34 1019.38 1019.39 1019.36 1019.29 1019.17 1019.00 1018.78 1018.50 1018.17 1017.80 1017.38 1016.93 1016.46 1015.96 1015.45 1014.94 1014.43 1013.91 1013.38 1012.83 1012.24 1011.60 1010.91 1010.16 1009.36 1008.52 1007.67 1006.85 1006.09 1005.45 1004.96 1004.65 1004.55 1004.66 1004.96
1018.64 1018.68 1018.72 1018.74 1018.74 1018.70 1018.63 1018.50 1018.33 1018.11 1017.83 1017.51 1017.12 1016.70 1016.23 1015.74 1015.23 1014.71 1014.18 1013.66 1013.13 1012.60 1012.04 1011.44 1010.79 1010.07 1009.29 1008.45 1007.55 1006.65 1005.77 1004.97 1004.28 1003.75 1003.43 1003.33 1003.45 1003.80
1017.96 1017.97 1017.97 1017.96 1017.92 1017.85 1017.76 1017.62 1017.45 1017.23 1016.97 1016.65 1016.29 1015.87 1015.42 1014.93 1014.43 1013.91 1013.39 1012.87 1012.34 1011.79 1011.22 1010.61 1009.93 1009.18 1008.36 1007.47 1006.52 1005.56 1004.62 1003.77 1003.04 1002.48 1002.14 1002.05 1002.20 1002.59
1017.18 1017.15 1017.09 1017.02 1016.93 1016.82 1016.69 1016.54 1016.36 1016.15 1015.91 1015.62 1015.28 1014.90 1014.49 1014.04 1013.56 1013.07 1012.57 1012.06 1011.53 1010.99 1010.41 1009.78 1009.08 1008.30 1007.43 1006.49 1005.50 1004.48 1003.50 1002.60 1001.83 1001.26 1000.91 1000.83 1001.01 1001.43
1016.31 1016.21 1016.09 1015.95 1015.80 1015.64 1015.47 1015.30 1015.11 1014.91 1014.69 1014.44 1014.15 1013.82 1013.45 1013.05 1012.62 1012.17 1011.71 1011.23 1010.72 1010.19 1009.62 1008.98 1008.26 1007.45 1006.56 1005.58 1004.55 1003.50 1002.48 1001.56 1000.78 1000.19 999.85 999.78 999.99 1000.46
1015.36 1015.18 1014.99 1014.78 1014.56 1014.34 1014.14 1013.95 1013.76 1013.57 1013.37 1013.16 1012.91 1012.64 1012.33 1011.98 1011.61 1011.21 1010.80 1010.36 1009.89 1009.38 1008.82 1008.18 1007.47 1006.65 1005.74 1004.76 1003.71 1002.65 1001.62 1000.69 999.92 999.34 999.02 998.98 999.21 999.72
1014.31 1014.07 1013.81 1013.53 1013.26 1013.00 1012.76 1012.55 1012.36 1012.19 1012.01 1011.83 1011.63 1011.40 1011.14 1010.85 1010.53 1010.18 1009.81 1009.42 1008.99 1008.52 1007.98 1007.37 1006.67 1005.87 1004.98 1004.00 1002.97 1001.93 1000.93 1000.02 999.27 998.73 998.43 998.42 998.70 999.24
Thickness
5683 5682 5680 5680 5679 5678 5677 5675 5672 5670 5672 5678 5683 5689 5693 5696 5699 5702 5704 5707 5709 5711 5713 5714 5716 5717 5719 5720 5721 5723 5723 5724 5724 5725 5725 5725 5726 5726
5683 5682 5680 5679 5679 5678 5677 5675 5674 5672 5671 5676 5680 5685 5689 5693 5695 5698 5701 5703 5705 5708 5709 5711 5713 5715 5716 5717 5718 5719 5720 5720 5721 5721 5721 5721 5721 5721
5682 5681 5680 5679 5678 5677 5676 5675 5674 5673 5671 5674 5678 5682 5685 5688 5691 5694 5697 5699 5701 5704 5706 5708 5709 5711 5712 5713 5714 5715 5716 5716 5717 5717 5717 5717 5717 5717
5681 5680 5679 5678 5677 5676 5675 5674 5673 5673 5671 5672 5675 5677 5681 5684 5687 5690 5693 5695 5697 5700 5702 5704 5705 5707 5708 5709 5710 5711 5711 5712 5713 5713 5713 5714 5713 5714
5679 5678 5677 5676 5675 5674 5673 5672 5672 5672 5671 5670 5671 5673 5676 5679 5682 5685 5687 5690 5693 5695 5697 5699 5701 5702 5703 5704 5705 5706 5707 5708 5708 5709 5709 5709 5710 5710
5677 5676 5675 5674 5672 5672 5671 5670 5670 5669 5668 5667 5668 5669 5671 5673 5675 5677 5680 5683 5686 5690 5692 5694 5696 5697 5698 5699 5701 5701 5702 5703 5703 5704 5704 5705 5705 5705
5674 5673 5673 5673 5672 5671 5670 5668 5667 5666 5665 5664 5664 5665 5666 5667 5668 5671 5673 5676 5680 5683 5686 5688 5689 5691 5693 5694 5696 5697 5698 5698 5699 5699 5700 5700 5700 5701
5669 5669 5669 5669 5668 5668 5668 5667 5665 5663 5661 5660 5660 5660 5661 5662 5664 5665 5666 5668 5671 5676 5677 5680 5683 5685 5688 5689 5691 5692 5693 5694 5694 5694 5695 5695 5696 5696
5664 5663 5664 5664 5663 5662 5662 5662 5661 5661 5660 5657 5656 5656 5657 5658 5658 5659 5659 5661 5664 5668 5668 5672 5675 5678 5681 5684 5685 5686 5687 5688 5688 5689 5689 5690 5690 5690
5659 5658 5657 5657 5658 5657 5656 5655 5655 5654 5654 5653 5653 5653 5653 5653 5652 5653 5653 5655 5657 5659 5661 5663 5667 5670 5674 5676 5678 5679 5680 5681 5682 5683 5683 5684 5684 5684
5653 5653 5652 5651 5652 5652 5650 5648 5648 5648 5649 5648 5647 5647 5646 5646 5645 5644 5643 5643 5646 5650 5651 5653 5658 5660 5664 5668 5670 5672 5673 5674 5675 5676 5676 5676 5677 5677
5646 5646 5646 5645 5646 5645 5642 5641 5640 5640 5641 5640 5639 5638 5637 5637 5636 5634 5634 5633 5635 5639 5643 5643 5646 5647 5653 5659 5661 5663 5664 5665 5666 5667 5668 5668 5668 5668
5637 5637 5638 5638 5638 5637 5635 5633 5632 5632 5631 5630 5629 5628 5627 5626 5625 5625 5624 5624 5625 5628 5632 5631 5634 5636 5638 5645 5649 5652 5654 5655 5656 5657 5658 5659 5660 5660
5629 5629 5629 5630 5629 5627 5625 5624 5623 5622 5619 5618 5617 5616 5616 5616 5616 5615 5615 5614 5615 5618 5620 5620 5622 5624 5627 5631 5636 5640 5642 5644 5645 5647 5648 5649 5649 5650
5620 5620 5620 5620 5618 5616 5615 5613 5611 5608 5606 5605 5604 5605 5604 5605 5604 5604 5604 5604 5605 5607 5608 5608 5609 5612 5615 5619 5624 5627 5629 5632 5634 5636 5637 5638 5639 5640
5610 5610 5610 5608 5606 5604 5603 5600 5598 5595 5594 5593 5593 5593 5592 5591 5591 5590 5590 5591 5592 5597 5597 5597 5598 5600 5603 5608 5611 5614 5617 5620 5623 5624 5626 5627 5629 5630
5600 5598 5597 5595 5593 5591 5589 5587 5585 5583 5581 5580 5579 5579 5579 5579 5579 5578 5577 5577 5579 5583 5586 5586 5586 5588 5591 5595 5599 5603 5606 5608 5611 5612 5614 5616 5618 5620
5588 5585 5584 5582 5580 5578 5576 5575 5572 5570 5569 5567 5566 5565 5565 5565 5566 5566 5564 5565 5567 5569 5572 5573 5573 5575 5578 5583 5586 5590 5593 5596 5598 5600 5603 5605 5608 5610
5575 5573 5571 5569 5566 5564 5562 5560 5559 5557 5555 5553 5552 5552 5551 5551 5551 5552 5552 5552 5554 5556 5558 5559 5560 5562 5567 5574 5578 5578 5581 5584 5585 5587 5590 5594 5599 5601
5561 5559 5557 5555 5553 5551 5548 5546 5545 5543 5541 5539 5538 5537 5536 5536 5537 5537 5538 5539 5541 5543 5546 5547 5548 5551 5556 5562 5566 5567 5568 5571 5574 5577 5579 5580 5584 5586
5548 5546 5544 5541 5539 5537 5535 5533 5531 5529 5528 5526 5525 5524 5523 5522 5522 5523 5524 5526 5527 5530 5533 5537 5539 5540 5541 5544 5548 5554 5557 5560 5564 5567 5568 5569 5572 5574
5535 5533 5531 5529 5526 5524 5522 5520 5518 5516 5515 5513 5512 5511 5510 5509 5509 5510 5511 5512 5515 5517 5521 5525 5525 5525 5527 5532 5538 5543 5546 5548 5550 5554 5558 5563 5566 5569
5523 5521 5519 5517 5514 5512 5509 5507 5505 5504 5502 5500 5499 5498 5497 5497 5497 5498 5499 5500 5502 5504 5507 5510 5512 5513 5516 5520 5524 5528 5532 5535 5537 5541 5545 5550 5555 5561